This is the latest recevied weather packets stored in our database for station/object K9APR. If no packets are shown the sender has not sent any weather packets the latest 10 day(s).
| Time | Temp. | Humidity | Pressure | Rain* | Wind** | Luminosity | Snow |
|---|---|---|---|---|---|---|---|
| 1777488961 | 17.22° C | 71% | 1010.6 hPa | 0 mm | - | - | - |
| 1777488420 | 16.67° C | 75% | 1010.5 hPa | 0 mm | - | - | - |
| 1777487881 | 16.11° C | 76% | 1010.6 hPa | 0 mm | - | - | - |
| 1777487341 | 15.56° C | 80% | 1010.6 hPa | 0 mm | - | - | - |
| 1777486800 | 15.56° C | 77% | 1010.5 hPa | 0 mm | - | - | - |
| 1777486262 | 15.56° C | 80% | 1010.5 hPa | 0 mm | - | - | - |
| 1777485721 | 15° C | 79% | 1010.6 hPa | 0 mm | - | - | - |
| 1777485180 | 15° C | 79% | 1010.6 hPa | 0 mm | - | - | - |
| 1777484641 | 15° C | 78% | 1010.8 hPa | 0 mm | - | - | - |
| 1777484100 | 15.56° C | 78% | 1010.7 hPa | 0 mm | - | - | - |
| 1777483559 | 15° C | 81% | 1010.7 hPa | 0 mm | - | - | - |
| 1777483021 | 15° C | 81% | 1010.9 hPa | 0 mm | - | - | - |
| 1777482673 | 13.89° C | 84% | 1010.9 hPa | 0 mm | - | - | - |
| 1777482480 | 13.89° C | 84% | 1010.9 hPa | 0 mm | - | - | - |
| 1777481939 | 13.89° C | 83% | 1011 hPa | 0 mm | - | - | - |
| 1777481400 | 13.89° C | 84% | 1011 hPa | 0 mm | - | - | - |
| 1777480860 | 13.89° C | 84% | 1011 hPa | 0 mm | - | - | - |
| 1777480321 | 13.89° C | 86% | 1011.1 hPa | 0 mm | - | - | - |
| 1777479781 | 13.33° C | 87% | 1011.2 hPa | 0 mm | - | - | - |
| 1777479241 | 12.78° C | 87% | 1011.2 hPa | 0 mm | - | - | - |
| 1777478701 | 12.78° C | 88% | 1011.2 hPa | 0 mm | - | - | - |
| 1777478161 | 12.78° C | 88% | 1011.4 hPa | 0 mm | - | - | - |
| 1777477620 | 12.22° C | 88% | 1011.3 hPa | 0 mm | - | - | - |
| 1777477081 | 12.22° C | 89% | 1011.2 hPa | 0 mm | - | - | - |
| 1777476541 | 12.22° C | 90% | 1011 hPa | 0 mm | - | - | - |
* Rain latest hour (hover to see other rain measurements)
** Current wind speed in m/s (hover to see current wind gust speed)